GW4012 Weather Reports


time (UTC)temp
C
wind
direction
speed
KPH
gust
KPH
rain 1hr
cm
rain 24hr
cm
rain mn
cm
humidity
%
barometer
mb
20260506124452 13 167 0.0 0.0 0.00 0.00 0.00 84 1019.8
20260506122951 13 189 0.0 0.0 0.00 0.00 0.00 85 1019.5
20260506121449 13 164 0.0 0.0 0.00 0.00 0.00 85 1019.6
20260506115946 13 184 0.0 1.6 0.00 0.00 0.00 85 1019.3
20260506114445 13 173 0.0 1.6 0.00 0.00 0.00 85 1019.4
20260506112943 13 165 1.6 4.8 0.00 0.00 0.00 84 1019.3
20260506111442 14 166 1.6 4.8 0.00 0.00 0.00 83 1019.2
20260506105939 14 171 0.0 0.0 0.00 0.00 0.00 83 1019.1
20260506104437 14 156 0.0 0.0 0.00 0.00 0.00 83 1018.8
20260506102934 14 175 0.0 1.6 0.00 0.00 0.00 82 1018.9
20260506101431 14 168 0.0 0.0 0.00 0.00 0.00 82 1018.7
20260506095931 14 174 0.0 1.6 0.00 0.00 0.00 82 1018.6
20260506094429 15 175 0.0 3.2 0.00 0.00 0.00 81 1018.6
20260506092928 15 174 0.0 0.0 0.00 0.00 0.00 81 1018.8
20260506091426 15 163 0.0 3.2 0.00 0.00 0.00 81 1018.6
20260506085923 15 166 1.6 4.8 0.00 0.00 0.00 80 1018.7
20260506084419 15 165 1.6 3.2 0.00 0.00 0.00 80 1018.8
20260506082916 15 169 1.6 3.2 0.00 0.00 0.00 80 1018.8
20260506081413 15 175 0.0 0.0 0.00 0.00 0.00 80 1018.7
20260506072905 15 171 1.6 1.6 0.00 0.00 0.00 79 1018.5
20260506071404 15 179 0.0 0.0 0.00 0.00 0.00 79 1018.1
20260506061350 15 176 0.0 0.0 0.00 0.05 0.05 80 1017.7
20260506051341 16 193 0.0 1.6 0.00 0.05 0.05 79 1017.1
20260506044336 16 188 1.6 3.2 0.00 0.05 0.05 78 1016.9
20260506042835 16 203 1.6 1.6 0.00 0.05 0.05 78 1016.7
20260506041334 16 201 1.6 4.8 0.00 0.05 0.05 77 1016.3
20260506035831 17 189 1.6 1.6 0.00 0.05 0.05 77 1016.0
20260506034328 17 172 0.0 0.0 0.00 0.05 0.05 78 1016.2
20260506032824 17 160 1.6 1.6 0.00 0.05 0.05 76 1016.1
20260506031321 17 175 0.0 3.2 0.00 0.05 0.05 76 1015.7
20260506025819 17 185 1.6 6.4 0.00 0.05 0.05 74 1015.6
20260506024315 17 178 0.0 4.8 0.00 0.05 0.05 74 1015.6
20260506022810 17 183 0.0 0.0 0.00 0.05 0.05 73 1015.3
20260506021309 17 161 3.2 6.4 0.00 0.05 0.05 72 1015.1
20260506015806 17 144 0.0 1.6 0.00 0.05 0.05 73 1015.2
20260506014303 17 113 6.4 9.7 0.00 0.05 0.05 72 1015.3
20260506012759 18 196 3.2 4.8 0.00 0.05 0.05 72 1014.9
20260506011255 18 154 0.0 6.4 0.00 0.05 0.05 70 1014.8
20260506005754 18 160 1.6 4.8 0.00 0.05 0.05 69 1014.8
20260506004250 18 178 1.6 3.2 0.00 0.05 0.05 67 1014.9
20260506002750 18 166 0.0 4.8 0.00 0.05 0.05 65 1014.6
20260506001246 19 167 3.2 3.2 0.00 0.05 0.05 63 1014.5
20260505235743 19 155 1.6 4.8 0.00 0.05 0.05 63 1014.6
20260505234241 20 168 0.0 3.2 0.00 0.05 0.05 61 1014.6
20260505232738 20 200 0.0 1.6 0.00 0.05 0.05 59 1014.5
20260505231237 21 210 6.4 9.7 0.00 0.05 0.05 56 1014.7
20260505225733 21 211 3.2 11.3 0.00 0.05 0.05 59 1014.6
20260505224229 20 192 1.6 1.6 0.00 0.05 0.05 61 1014.6
20260505222725 18 176 0.0 3.2 0.00 0.05 0.05 63 1014.9
20260505221221 19 248 1.6 1.6 0.00 0.05 0.05 62 1015.1
20260505215719 19 338 1.6 3.2 0.00 0.05 0.05 60 1015.0
20260505214217 20 189 0.0 3.2 0.00 0.05 0.05 64 1015.1
20260505212713 19 187 3.2 3.2 0.00 0.05 0.05 65 1015.4
20260505211211 18 185 3.2 6.4 0.00 0.05 0.05 67 1015.3
20260505205708 18 148 0.0 3.2 0.00 0.05 0.05 66 1015.3
20260505204206 18 174 3.2 4.8 0.00 0.05 0.05 67 1015.4
20260505202701 18 219 0.0 1.6 0.00 0.05 0.05 66 1015.6
20260505201158 17 152 4.8 6.4 0.00 0.05 0.05 70 1015.5
20260505195654 17 188 0.0 1.6 0.00 0.05 0.05 70 1015.6
20260505194151 16 166 1.6 4.8 0.00 0.05 0.05 74 1015.7
20260505192649 17 181 0.0 1.6 0.00 0.05 0.05 72 1015.7
20260505191148 18 270 1.6 3.2 0.00 0.05 0.05 69 1015.8
20260505185646 17 159 3.2 11.3 0.00 0.05 0.05 73 1015.7
20260505184142 16 146 3.2 4.8 0.00 0.05 0.05 76 1015.5
20260505182638 16 181 1.6 3.2 0.00 0.05 0.05 76 1015.5
20260505181135 15 181 1.6 3.2 0.00 0.05 0.05 81 1015.6
20260505175630 15 211 0.0 6.4 0.00 0.05 0.05 83 1015.5
20260505174126 15 164 6.4 6.4 0.00 0.05 0.05 81 1015.3
20260505172623 14 163 4.8 6.4 0.00 0.05 0.05 86 1015.2
20260505171123 13 151 4.8 4.8 0.00 0.05 0.05 87 1015.4
20260505165623 13 164 4.8 4.8 0.00 0.05 0.05 87 1015.4
20260505164119 14 191 3.2 9.7 0.00 0.05 0.05 89 1015.2
20260505162617 12 198 1.6 3.2 0.00 0.05 0.05 93 1015.3
20260505161114 12 147 1.6 4.8 0.00 0.05 0.05 94 1015.3
20260505152608 11 161 3.2 4.8 0.00 0.05 0.05 97 1015.0
20260505151103 11 145 1.6 1.6 0.00 0.05 0.05 97 1015.0